Location: Croissy-Beaubourg
(48.8283°N, 2.6696°E)
Time: 10:59:10
(UTC+00:00)

Cosmos 2082 - Visible Passes

Search period start: 17 August 2022 00:00
Search period end: 27 August 2022 00:00
Orbit: 834 x 854 km, 71.0° (Epoch: 16 August)

Date Brightness Start Highest point End Pass type
(mag) Time Alt. Az. Time Alt. Az. Time Alt. Az.
17 Aug 6.1 01:52:34 10° N 01:57:05 24° NE 02:01:38 10° E visible
17 Aug 3.7 03:36:10 10° NNW 03:41:52 80° WSW 03:47:33 10° SSE visible
17 Aug 6.6 20:18:18 10° W 20:22:19 20° NW 20:26:23 10° N visible
18 Aug 6.0 01:38:18 10° N 01:42:48 23° NE 01:47:17 10° E visible
18 Aug 3.7 03:21:53 10° NNW 03:27:36 82° WSW 03:33:17 10° SSE visible
18 Aug 6.5 20:03:55 10° W 20:08:01 20° NW 20:12:08 10° N visible
19 Aug 6.0 01:24:03 10° N 01:28:29 23° NE 01:32:56 10° E visible
19 Aug 3.7 03:07:37 10° NNW 03:13:19 85° WSW 03:19:02 10° SSE visible
19 Aug 6.5 19:49:33 10° W 19:53:42 21° NW 19:57:53 10° N visible
20 Aug 6.0 01:09:48 10° N 01:14:12 22° NE 01:18:34 10° E visible
20 Aug 3.7 02:53:20 10° NNW 02:59:03 87° WSW 03:04:46 10° SSE visible
20 Aug 6.4 19:35:11 10° W 19:39:24 21° NW 19:43:39 10° N visible
21 Aug 6.0 00:55:33 10° N 00:59:53 22° NE 01:04:13 10° E visible
21 Aug 3.7 02:39:04 10° NNW 02:44:47 90° SW 02:50:30 10° SSE visible
21 Aug 6.4 19:20:49 10° W 19:25:05 22° NW 19:29:24 10° N visible
22 Aug 6.0 00:41:18 10° N 00:45:35 21° NE 00:49:51 10° E visible
22 Aug 3.7 02:24:47 10° NNW 02:30:31 88° ENE 02:36:14 10° SSE visible
22 Aug 5.1 04:10:24 10° WNW 04:13:50 16° W 04:17:16 10° SW visible
23 Aug 6.0 00:27:04 10° N 00:31:16 21° NE 00:35:30 10° E visible
23 Aug 3.7 02:10:31 10° NNW 02:16:15 85° ENE 02:21:57 10° SSE visible
23 Aug 5.1 03:56:02 10° WNW 03:59:35 17° W 04:03:08 10° SW visible
24 Aug 6.0 00:12:48 10° N 00:16:58 20° NE 00:21:08 10° E visible
24 Aug 3.7 01:56:15 10° NNW 02:01:58 83° ENE 02:06:03 20° SSE visible
24 Aug 5.1 03:41:41 10° WNW 03:45:21 18° W 03:47:45 14° SW visible
24 Aug 6.0 23:58:34 10° N 00:02:40 20° NE 00:06:46 10° E visible
25 Aug 3.7 01:41:58 10° NNW 01:47:42 80° ENE 01:50:14 35° SE visible
25 Aug 5.0 03:27:20 10° WNW 03:31:07 18° W 03:31:59 18° WSW visible
25 Aug 6.0 23:44:19 10° N 23:48:22 19° NE 23:52:24 10° E visible
26 Aug 3.7 01:27:42 10° NNW 01:33:26 78° ENE 01:34:54 51° SE visible
26 Aug 5.0 03:12:59 10° WNW 03:16:41 19° W 03:16:41 19° W visible
26 Aug 6.0 23:30:05 10° N 23:34:03 19° NE 23:38:02 10° E visible
